Location: Newark
(25.0000°N, 73.5000°E)
Time: 12:55:23
(UTC+00:00)

RS-15 - Pass Details

Date: 23 February 2020
Orbit: 1898 x 2146 km, 64.8° (Epoch: 03 April)

Event Time Altitude Azimuth Distance (km) Brightness Sun altitude
Rises 00:41:15 0° 334° (NNW) 5,343 10.0 -12.8°
Reaches altitude 10° 00:44:28 10° 335° (NNW) 4,367 9.6 -12.1°
Maximum altitude 00:55:47 89° 63° (ENE) 2,019 8.1 -9.6°
Drops below altitude 10° 01:07:39 10° 156° (SSE) 4,557 10.4 -6.9°
Sets 01:11:04 0° 157° (SSE) 5,584 10.9 -6.1°
